STARLINK-5298 (55281 NORAD) Tracking and Keplerian Element Data

This shows tracking and keplerian element data for the satellite.

Feedback or suggestion? Click here.




ElementValue
Catalog55281
NameSTARLINK-5298
Epoch Orbit1704
Epoch Day127.09101666
Epoch Year2023
RAAN140.6127
Inclination69.9983
Eccentricity0.0003422
Argument of Perigee271.7791
Mean Anonmoly88.2976
Mean Motion14.99143368
Decay Rate-2.8E-07
L11 55281U 23010N 23127.09101666 -.00000028 00000+0 54091-5 0 9995
L22 55281 69.9983 140.6127 0003422 271.7791 88.2976 14.99143368 17043



Live tracking and technical data element details for STARLINK-5298 (NORAD 55281). STARLINK-5298 can be tracked NOW for your location showing map with azimuth and elevation plus other details from your city location.







IsCatalogInMostPopularTable: catalog: 55281, numindb: -1

Insert: records affected: 1


GetName: 55281 STARLINK-5298

Hit Count: inserted at: Mon, 05 Jun 2023 20:46:02 GMT